Content
SEND FEEDBACK

Daily
Averages
Monthly
Summary
Australia

HALLETTS COVE, SOUTH AUSTRALIA


Home > Oceania > Australia > South Australia
Elevation: 131 feet     Latitude: 34 55S     Longitude: 138 34E

WEATHER
 
SELECT A DAY
Number of Records: 295,472;   Date Range: 7/1/96 - 8/31/14
 
SHARE

PRINT THIS DATA

[ ← Previous Day ]
WEATHER ALMANAC - FEBRUARY 13, 2013
[ Next Day → ]
[ °C ]   °F
Weather ElementAverageHighLow
Temperature73.5 °F87.8 °F (7:30 pm)60.8 °F (6:00 am)
Dewpoint55.7 °F66.2 °F (3:30 pm)41 °F (7:30 pm)
Humidity53.2 %77 % (6:30 am)19 % (7:30 pm)
Barometer29.99 in30.04 in (12:00 am)29.92 in (4:30 pm)
Wind Speed8.4 mph17.3 mph (2:30 pm)
Weather ElementAverage
Visibility19 mi
Wind DirectionSSW (194.4 °)

Weather ElementTotal
Precipitation---
Cooling Degree Days9.3 (Base 65)
Growing Degree Days24.3 (Base 50)
Averaged from 62 records on February 13, 2013
WEATHER CONDITIONS BREAKOUT
WIND DIRECTION BREAKOUT
WEATHER BY HOUR - FEBRUARY 13, 2013
[ °C ]   °F
Local TimeTemperatureDewpointHumidityBarometerVisibilityWind DirectionWind SpeedGust SpeedPrecipitationEventsConditions
12:00 AM68.0 °F51.8 °F56 %30.04 inSSE (160°)5.8 mphClear
12:30 AM66.2 °F51.8 °F60 %30.01 inSouth (170°)4.6 mphClear
1:00 AM68.0 °F51.8 °F56 %30.01 inSSE (160°)3.5 mphClear
1:30 AM66.0 °F52.0 °F51 %30.02 inCalm
1:30 AM66.2 °F51.8 °F60 %30.01 inCalm
2:00 AM64.4 °F53.6 °F68 %30.01 inESE (120°)3.5 mphClear
2:30 AM64.4 °F53.6 °F68 %30.01 inSE (140°)1.2 mphClear
3:00 AM66.2 °F53.6 °F64 %30.01 inEast (100°)4.6 mphClear
3:00 AM67.0 °F53.0 °F52 %30.00 in19.0 miEast (100°)4.6 mphPartly Cloudy
3:30 AM66.2 °F53.6 °F64 %30.01 inCalmClear
4:00 AM66.2 °F51.8 °F60 %29.98 inNorth (350°)4.6 mphClear
4:30 AM65.0 °F52.0 °F54 %30.00 inNNW (340°)4.6 mph
4:30 AM64.4 °F51.8 °F64 %29.98 inNNW (340°)4.6 mphClear
5:00 AM62.6 °F53.6 °F72 %30.01 inESE (110°)1.2 mphClear
5:30 AM62.6 °F51.8 °F68 %29.98 inNorth (10°)4.6 mphClear
6:00 AM60.8 °F51.8 °F72 %30.01 inCalmClear
6:00 AM61.0 °F52.0 °F64 %30.01 in19.0 miCalmPartly Cloudy
6:30 AM60.8 °F53.6 °F77 %30.01 inSSE (150°)3.5 mphClear
7:00 AM62.6 °F53.6 °F72 %30.01 inSW (230°)1.2 mphClear
7:30 AM65.0 °F54.0 °F60 %30.03 inCalm
7:30 AM64.4 °F55.4 °F73 %30.01 inCalmClear
8:00 AM68.0 °F57.2 °F68 %30.01 inNNW (340°)3.5 mphClear
8:30 AM69.8 °F55.4 °F60 %30.04 inWNW (300°)4.6 mphClear
9:00 AM71.6 °F59.0 °F64 %30.04 inWest (260°)5.8 mphClear
9:00 AM72.0 °F58.0 °F53 %30.04 in19.0 miWest (260°)5.8 mphPartly Cloudy
9:30 AM73.4 °F60.8 °F65 %30.04 inWest (260°)6.9 mphClear
10:00 AM75.2 °F60.8 °F61 %30.04 inWest (260°)8.1 mphClear
10:30 AM75.0 °F63.0 °F57 %30.04 inWest (260°)8.1 mph
10:30 AM75.2 °F62.6 °F65 %30.04 inWest (260°)8.1 mphClear
11:00 AM77.0 °F59.0 °F54 %30.04 inWSW (250°)6.9 mphClear
11:30 AM77.0 °F55.4 °F47 %30.04 inWSW (250°)9.2 mphClear
12:00 PM77.0 °F53.6 °F44 %30.01 inWSW (240°)10.4 mphClear
12:00 PM78.0 °F54.0 °F32 %30.02 in19.0 miWSW (240°)10.4 mphPartly Cloudy
12:30 PM77.0 °F57.2 °F50 %30.01 inWSW (240°)12.7 mphClear
1:00 PM78.8 °F60.8 °F54 %30.01 inWSW (240°)12.7 mphClear
1:30 PM80.0 °F58.0 °F37 %30.00 inSW (230°)13.8 mph
1:30 PM80.6 °F59.0 °F48 %29.98 inSW (230°)13.8 mphClear
2:00 PM80.6 °F60.8 °F51 %29.98 inSW (230°)13.8 mphClear
2:30 PM80.6 °F60.8 °F51 %29.98 inSW (220°)17.3 mphClear
3:00 PM80.6 °F62.6 °F54 %29.98 inSW (220°)17.3 mphClear
3:00 PM80.0 °F63.0 °F47 %29.97 in19.0 miSW (220°)17.3 mphPartly Cloudy
3:30 PM78.8 °F66.2 °F65 %29.95 inSSW (210°)16.1 mphClear
4:00 PM78.8 °F64.4 °F61 %29.95 inSW (220°)15.0 mphClear
4:30 PM80.0 °F65.0 °F50 %29.94 inSW (220°)17.3 mph
4:30 PM78.8 °F64.4 °F61 %29.92 inSW (220°)17.3 mphClear
5:00 PM78.8 °F64.4 °F61 %29.92 inSW (220°)16.1 mphClear
5:30 PM80.6 °F62.6 °F54 %29.92 inSSW (210°)16.1 mphClear
6:00 PM82.4 °F62.6 °F51 %29.92 inSSW (210°)16.1 mphClear
6:00 PM82.0 °F63.0 °F43 %29.92 in19.0 miSSW (210°)16.1 mphPartly Cloudy
6:30 PM82.4 °F60.8 °F48 %29.92 inSSW (210°)13.8 mphClear
7:00 PM84.2 °F60.8 °F45 %29.92 inSSW (210°)9.2 mphClear
7:30 PM87.8 °F41.0 °F19 %29.92 inSSE (150°)10.4 mphClear
8:00 PM84.2 °F46.4 °F27 %29.95 inSSE (160°)10.4 mphClear
8:30 PM82.4 °F50.0 °F32 %29.95 inSE (140°)10.4 mphClear
9:00 PM80.6 °F50.0 °F34 %29.95 inSSE (160°)10.4 mphClear
9:00 PM80.0 °F49.0 °F24 %29.96 in19.0 miSSE (160°)10.4 mphPartly Cloudy
9:30 PM78.8 °F50.0 °F36 %29.95 inSouth (170°)10.4 mph
10:00 PM75.2 °F50.0 °F41 %29.98 inSSE (160°)11.5 mphClear
10:30 PM74.0 °F49.0 °F30 %29.98 inSouth (180°)6.9 mph
10:30 PM75.2 °F48.2 °F38 %29.98 inSouth (180°)6.9 mphClear
11:00 PM73.4 °F48.2 °F41 %29.98 inSouth (190°)10.4 mphClear
11:30 PM73.4 °F46.4 °F38 %29.98 inSouth (190°)9.2 mphClear
Hourly data recorded from YPAD, located miles away from Halletts Cove, South Australia







STORIES FROM OUR PARTNERS